When you browse on this site, cookies collect data to enhance your experience and personalize the content and advertising you see.
Visit our Privacy Policy to learn more. By continuing to use the site, you agree to this use of cookies and data.
  • In Hungary
  • List of Countries
  • For 7 days
  • Water Temperature
  • Satellite Maps
  • Weather Map
  • News
  • Weather Widgets
  • user-avatar
    Login

    Hourly Weather Belmont

    Today, 27 June, Thursday

    Time Temperature Precipitation Wind Pressure Humidity
    00:00 +18°C° 0.1 mm 0 mps 759 mmHg 90%
    01:00 +17°C° 0.1 mm 0 mps 760 mmHg 92%
    02:00 +17°C° 0 mm 0 mps 759 mmHg 93%
    03:00 +17°C° 0 mm 0 mps 759 mmHg 93%
    04:00 +19°C° 0 mm 1 mps 759 mmHg 94%
    05:00 +18°C° 0 mm 0 mps 760 mmHg 90%
    06:00 +19°C° 0 mm 0 mps 760 mmHg 87%
    07:00 +20°C° 0 mm 0 mps 760 mmHg 83%
    08:00 +22°C° 0 mm 0 mps 760 mmHg 75%
    09:00 +26°C° 0 mm 1 mps 760 mmHg 67%
    10:00 +28°C° 0 mm 1 mps 760 mmHg 59%
    11:00 +29°C° 0 mm 1 mps 760 mmHg 54%
    12:00 +30°C° 0 mm 1 mps 760 mmHg 50%
    13:00 +31°C° 0 mm 2 mps 760 mmHg 46%
    14:00 +30°C° 0 mm 2 mps 760 mmHg 48%
    15:00 +29°C° 0 mm 2 mps 759 mmHg 50%
    16:00 +28°C° 0 mm 3 mps 759 mmHg 53%
    17:00 +27°C° 0 mm 3 mps 759 mmHg 61%
    18:00 +25°C° 0 mm 2 mps 760 mmHg 69%
    19:00 +24°C° 0 mm 2 mps 760 mmHg 77%
    20:00 +23°C° 0 mm 2 mps 760 mmHg 79%
    21:00 +21°C° 0 mm 2 mps 760 mmHg 81%
    22:00 +22°C° 0 mm 1 mps 761 mmHg 84%
    23:00 +21°C° 0 mm 1 mps 760 mmHg 82%

    Tomorrow, 28 June, Friday

    Time Temperature Precipitation Wind Pressure Humidity
    00:00 +20°C° 0 mm 2 mps 760 mmHg 81%
    01:00 +20°C° 0 mm 2 mps 760 mmHg 79%
    02:00 +20°C° 0 mm 2 mps 760 mmHg 81%
    03:00 +19°C° 0 mm 2 mps 760 mmHg 83%
    04:00 +19°C° 0 mm 2 mps 760 mmHg 85%
    05:00 +21°C° 0 mm 1 mps 760 mmHg 78%
    06:00 +23°C° 0 mm 1 mps 760 mmHg 71%
    07:00 +24°C° 0 mm 1 mps 761 mmHg 64%
    08:00 +26°C° 0 mm 1 mps 761 mmHg 56%
    09:00 +28°C° 0 mm 2 mps 761 mmHg 48%
    10:00 +30°C° 0 mm 2 mps 760 mmHg 40%
    11:00 +31°C° 0 mm 2 mps 760 mmHg 38%
    12:00 +32°C° 0 mm 2 mps 760 mmHg 35%
    13:00 +34°C° 0 mm 2 mps 760 mmHg 32%
    14:00 +32°C° 0 mm 2 mps 760 mmHg 34%
    15:00 +32°C° 0 mm 2 mps 759 mmHg 35%
    16:00 +32°C° 0 mm 2 mps 759 mmHg 37%
    17:00 +30°C° 0 mm 2 mps 759 mmHg 44%
    18:00 +28°C° 0 mm 2 mps 760 mmHg 52%
    19:00 +26°C° 0 mm 2 mps 760 mmHg 59%
    20:00 +25°C° 0 mm 2 mps 760 mmHg 61%
    21:00 +25°C° 0 mm 1 mps 760 mmHg 63%
    22:00 +24°C° 0 mm 1 mps 760 mmHg 66%
    23:00 +24°C° 0 mm 1 mps 760 mmHg 67%

    Day after tomorrow, 29 June, Saturday

    Time Temperature Precipitation Wind Pressure Humidity
    00:00 +23°C° 0 mm 1 mps 759 mmHg 68%
    01:00 +23°C° 0 mm 1 mps 759 mmHg 70%
    02:00 +23°C° 0 mm 1 mps 759 mmHg 70%
    03:00 +23°C° 0 mm 1 mps 759 mmHg 70%
    04:00 +22°C° 0 mm 1 mps 758 mmHg 70%
    05:00 +23°C° 0 mm 1 mps 758 mmHg 71%
    06:00 +21°C° 0 mm 0 mps 758 mmHg 72%
    07:00 +21°C° 0 mm 0 mps 758 mmHg 73%
    08:00 +25°C° 0 mm 1 mps 758 mmHg 65%
    09:00 +28°C° 0 mm 2 mps 757 mmHg 57%
    10:00 +30°C° 0 mm 3 mps 757 mmHg 49%
    11:00 +33°C° 0 mm 3 mps 756 mmHg 46%
    12:00 +34°C° 0 mm 4 mps 755 mmHg 42%
    13:00 +36°C° 0 mm 4 mps 755 mmHg 38%
    14:00 +35°C° 0.4 mm 4 mps 754 mmHg 42%
    15:00 +34°C° 0.4 mm 3 mps 753 mmHg 47%
    16:00 +33°C° 0.4 mm 3 mps 753 mmHg 51%
    17:00 +30°C° 0.5 mm 3 mps 753 mmHg 59%
    18:00 +28°C° 0.5 mm 3 mps 753 mmHg 66%
    19:00 +27°C° 0.5 mm 2 mps 753 mmHg 74%
    20:00 +26°C° 0.4 mm 2 mps 753 mmHg 78%
    21:00 +25°C° 0.4 mm 2 mps 752 mmHg 82%
    22:00 +24°C° 0.4 mm 2 mps 752 mmHg 85%
    23:00 +24°C° 0 mm 2 mps 752 mmHg 85%

    30 June, Sunday

    Time Temperature Precipitation Wind Pressure Humidity
    00:00 +22°C° 0 mm 3 mps 752 mmHg 84%
    01:00 +22°C° 0 mm 3 mps 751 mmHg 84%
    02:00 +21°C° 0 mm 3 mps 751 mmHg 83%
    03:00 +21°C° 0 mm 3 mps 751 mmHg 83%
    04:00 +21°C° 0 mm 2 mps 751 mmHg 82%
    05:00 +22°C° 0 mm 3 mps 751 mmHg 78%
    06:00 +24°C° 0 mm 3 mps 751 mmHg 74%
    07:00 +25°C° 0 mm 3 mps 750 mmHg 70%
    08:00 +26°C° 0.2 mm 4 mps 750 mmHg 65%
    09:00 +27°C° 0.2 mm 4 mps 750 mmHg 60%
    10:00 +28°C° 0.2 mm 5 mps 750 mmHg 55%
    11:00 +28°C° 0.5 mm 5 mps 749 mmHg 51%
    12:00 +28°C° 0.5 mm 5 mps 749 mmHg 47%
    13:00 +28°C° 0.5 mm 5 mps 749 mmHg 43%
    14:00 +28°C° 0 mm 6 mps 749 mmHg 41%
    15:00 +27°C° 0 mm 6 mps 749 mmHg 39%
    16:00 +27°C° 0 mm 6 mps 749 mmHg 36%
    17:00 +25°C° 0 mm 5 mps 750 mmHg 41%
    18:00 +23°C° 0 mm 5 mps 750 mmHg 46%
    19:00 +22°C° 0 mm 4 mps 751 mmHg 51%
    20:00 +21°C° 0 mm 4 mps 751 mmHg 52%
    21:00 +21°C° 0 mm 4 mps 751 mmHg 53%
    22:00 +20°C° 0 mm 4 mps 751 mmHg 54%
    23:00 +20°C° 0 mm 4 mps 751 mmHg 55%

    1 July, Monday

    Time Temperature Precipitation Wind Pressure Humidity
    00:00 +19°C° 0 mm 4 mps 751 mmHg 56%
    01:00 +19°C° 0 mm 4 mps 751 mmHg 57%
    02:00 +19°C° 0 mm 3 mps 752 mmHg 59%
    03:00 +19°C° 0 mm 3 mps 752 mmHg 60%
    04:00 +18°C° 0 mm 3 mps 752 mmHg 61%
    05:00 +19°C° 0 mm 3 mps 752 mmHg 60%
    06:00 +20°C° 0 mm 3 mps 752 mmHg 58%
    07:00 +21°C° 0 mm 3 mps 752 mmHg 56%
    08:00 +24°C° 0 mm 3 mps 753 mmHg 52%
    09:00 +25°C° 0 mm 3 mps 753 mmHg 47%
    10:00 +27°C° 0 mm 2 mps 753 mmHg 43%
    11:00 +28°C° 0 mm 2 mps 753 mmHg 41%
    12:00 +29°C° 0 mm 2 mps 753 mmHg 39%
    13:00 +29°C° 0 mm 2 mps 752 mmHg 36%
    14:00 +29°C° 0 mm 2 mps 752 mmHg 37%
    15:00 +29°C° 0 mm 2 mps 752 mmHg 38%
    16:00 +29°C° 0 mm 2 mps 752 mmHg 39%
    17:00 +28°C° 0 mm 2 mps 752 mmHg 46%
    18:00 +26°C° 0 mm 3 mps 752 mmHg 53%
    19:00 +25°C° 0 mm 3 mps 752 mmHg 60%
    20:00 +24°C° 0 mm 2 mps 752 mmHg 64%
    21:00 +23°C° 0 mm 2 mps 752 mmHg 67%
    22:00 +21°C° 0 mm 2 mps 751 mmHg 71%
    23:00 +22°C° 0 mm 1 mps 751 mmHg 70%

    2 July, Tuesday

    Time Temperature Precipitation Wind Pressure Humidity
    00:00 +22°C° 0 mm 1 mps 750 mmHg 68%
    01:00 +22°C° 0 mm 1 mps 750 mmHg 67%
    02:00 +21°C° 0.2 mm 1 mps 750 mmHg 71%
    03:00 +21°C° 0.2 mm 1 mps 750 mmHg 75%
    04:00 +20°C° 0.2 mm 1 mps 750 mmHg 79%
    05:00 +21°C° 0 mm 1 mps 750 mmHg 77%
    06:00 +22°C° 0 mm 1 mps 750 mmHg 74%
    07:00 +23°C° 0 mm 1 mps 750 mmHg 72%
    08:00 +25°C° 0 mm 2 mps 750 mmHg 64%
    09:00 +28°C° 0 mm 2 mps 750 mmHg 57%
    10:00 +30°C° 0 mm 2 mps 750 mmHg 49%
    11:00 +30°C° 0 mm 3 mps 750 mmHg 46%
    12:00 +31°C° 0 mm 3 mps 750 mmHg 43%
    13:00 +33°C° 0 mm 3 mps 750 mmHg 41%
    14:00 +31°C° 0 mm 3 mps 749 mmHg 41%
    15:00 +31°C° 0 mm 3 mps 749 mmHg 42%
    16:00 +31°C° 0 mm 3 mps 749 mmHg 42%
    17:00 +29°C° 0 mm 3 mps 750 mmHg 45%
    18:00 +28°C° 0 mm 2 mps 750 mmHg 48%
    19:00 +27°C° 0 mm 2 mps 751 mmHg 51%
    20:00 +26°C° 0 mm 2 mps 751 mmHg 52%
    21:00 +25°C° 0 mm 2 mps 752 mmHg 53%
    22:00 +24°C° 0 mm 2 mps 752 mmHg 54%
    23:00 +23°C° 0 mm 2 mps 752 mmHg 56%
    Show more